| time (UTC) | temp C | wind direction | speed KPH | gust KPH | rain 1hr cm | rain 24hr cm | rain mn cm | humidity % | barometer mb |
| 20260906192928 | 38 | 23 | 1.6 | 3.2 | 0.00 | 0.00 | 0.00 | 37 | 1015.5 |
| 20260906191929 | 37 | 268 | 3.2 | 4.8 | 0.00 | 0.00 | 0.00 | 40 | 1015.5 |
| 20260906190929 | 38 | 163 | 0.0 | 1.6 | 0.00 | 0.00 | 0.00 | 38 | 1015.8 |
| 20260906185929 | 37 | 0.0 | 0.0 | 0.00 | 0.00 | 0.00 | 40 | 1016.0 | |
| 20260906184948 | 37 | 0.0 | 0.0 | 0.00 | 0.00 | 0.00 | 39 | 1016.1 | |
| 20260906184009 | 36 | 0.0 | 0.0 | 0.00 | 0.00 | 0.00 | 41 | 1016.4 | |
| 20260906182929 | 37 | 230 | 1.6 | 1.6 | 0.00 | 0.00 | 0.00 | 40 | 1016.5 |
| 20260906181929 | 36 | 46 | 3.2 | 3.2 | 0.00 | 0.00 | 0.00 | 43 | 1016.6 |
| 20260906180950 | 36 | 0.0 | 0.0 | 0.00 | 0.00 | 0.00 | 43 | 1016.8 | |
| 20260906175930 | 36 | 292 | 8.0 | 9.7 | 0.00 | 0.00 | 0.00 | 43 | 1017.3 |
| 20260906174933 | 37 | 144 | 4.8 | 4.8 | 0.00 | 0.00 | 0.00 | 41 | 1017.4 |
| 20260906173934 | 36 | 0.0 | 0.0 | 0.00 | 0.00 | 0.00 | 43 | 1017.5 | |
| 20260906172933 | 36 | 0.0 | 0.0 | 0.00 | 0.00 | 0.00 | 44 | 1018.0 | |
| 20260906171934 | 36 | 0.0 | 0.0 | 0.00 | 0.00 | 0.00 | 43 | 1018.1 | |
| 20260906170934 | 35 | 0.0 | 0.0 | 0.00 | 0.00 | 0.00 | 45 | 1018.2 | |
| 20260906165934 | 35 | 0.0 | 0.0 | 0.00 | 0.00 | 0.00 | 46 | 1018.3 | |
| 20260906164934 | 35 | 0.0 | 0.0 | 0.00 | 0.00 | 0.00 | 45 | 1018.3 | |
| 20260906163934 | 36 | 223 | 3.2 | 3.2 | 0.00 | 0.00 | 0.00 | 45 | 1018.2 |
| 20260906162934 | 35 | 263 | 1.6 | 1.6 | 0.00 | 0.00 | 0.00 | 45 | 1018.3 |
| 20260906161935 | 35 | 0.0 | 0.0 | 0.00 | 0.00 | 0.00 | 46 | 1018.3 | |
| 20260906160935 | 34 | 0.0 | 0.0 | 0.00 | 0.00 | 0.00 | 48 | 1018.7 | |
| 20260906155955 | 34 | 0.0 | 0.0 | 0.00 | 0.00 | 0.00 | 47 | 1018.4 | |
| 20260906154936 | 33 | 0.0 | 0.0 | 0.00 | 0.00 | 0.00 | 48 | 1018.4 | |
| 20260906153936 | 33 | 0.0 | 0.0 | 0.00 | 0.00 | 0.00 | 50 | 1018.2 | |
| 20260906152934 | 33 | 0.0 | 0.0 | 0.00 | 0.00 | 0.00 | 51 | 1018.1 | |
| 20260906151934 | 32 | 338 | 3.2 | 3.2 | 0.00 | 0.00 | 0.00 | 51 | 1018.0 |
| 20260906150934 | 31 | 257 | 3.2 | 3.2 | 0.00 | 0.00 | 0.00 | 55 | 1018.2 |
| 20260906145935 | 31 | 0.0 | 0.0 | 0.00 | 0.00 | 0.00 | 59 | 1018.1 | |
| 20260906144935 | 30 | 0.0 | 0.0 | 0.00 | 0.00 | 0.00 | 62 | 1018.0 | |
| 20260906143955 | 29 | 0.0 | 0.0 | 0.00 | 0.00 | 0.00 | 64 | 1018.1 | |
| 20260906142955 | 28 | 0.0 | 0.0 | 0.00 | 0.00 | 0.00 | 67 | 1018.2 | |
| 20260906141936 | 27 | 0.0 | 0.0 | 0.00 | 0.00 | 0.00 | 68 | 1018.1 | |
| 20260906140936 | 26 | 0.0 | 0.0 | 0.00 | 0.00 | 0.00 | 73 | 1018.1 | |
| 20260906135934 | 25 | 0.0 | 0.0 | 0.00 | 0.00 | 0.00 | 76 | 1017.9 | |
| 20260906134935 | 24 | 0.0 | 0.0 | 0.00 | 0.00 | 0.00 | 82 | 1018.1 | |
| 20260906133935 | 23 | 0.0 | 0.0 | 0.00 | 0.00 | 0.00 | 85 | 1018.0 | |
| 20260906132935 | 23 | 0.0 | 0.0 | 0.00 | 0.00 | 0.00 | 86 | 1018.1 | |
| 20260906131935 | 22 | 0.0 | 0.0 | 0.00 | 0.00 | 0.00 | 87 | 1017.6 | |
| 20260906130935 | 22 | 0.0 | 0.0 | 0.00 | 0.00 | 0.00 | 87 | 1017.4 | |
| 20260906125936 | 21 | 0.0 | 0.0 | 0.00 | 0.00 | 0.00 | 88 | 1017.5 | |
| 20260906124936 | 21 | 0.0 | 0.0 | 0.00 | 0.00 | 0.00 | 88 | 1017.5 | |
| 20260906123956 | 21 | 0.0 | 0.0 | 0.00 | 0.00 | 0.00 | 88 | 1017.2 | |
| 20260906123000 | 21 | 0.0 | 0.0 | 0.00 | 0.00 | 0.00 | 88 | 1016.9 | |
| 20260906121929 | 21 | 0.0 | 0.0 | 0.00 | 0.00 | 0.00 | 88 | 1017.0 | |
| 20260906120929 | 21 | 0.0 | 0.0 | 0.00 | 0.00 | 0.00 | 88 | 1016.6 | |
| 20260906115929 | 21 | 0.0 | 0.0 | 0.00 | 0.00 | 0.00 | 88 | 1016.5 | |
| 20260906114929 | 21 | 0.0 | 0.0 | 0.00 | 0.00 | 0.00 | 87 | 1016.5 | |
| 20260906113929 | 21 | 0.0 | 0.0 | 0.00 | 0.00 | 0.00 | 87 | 1016.3 | |
| 20260906112930 | 21 | 0.0 | 0.0 | 0.00 | 0.00 | 0.00 | 87 | 1016.1 | |
| 20260906111930 | 21 | 0.0 | 0.0 | 0.00 | 0.00 | 0.00 | 87 | 1016.0 | |
| 20260906110934 | 21 | 0.0 | 0.0 | 0.00 | 0.00 | 0.00 | 87 | 1016.1 | |
| 20260906105934 | 21 | 0.0 | 0.0 | 0.00 | 0.00 | 0.00 | 87 | 1016.2 | |
| 20260906104934 | 21 | 0.0 | 0.0 | 0.00 | 0.00 | 0.00 | 87 | 1016.4 | |
| 20260906103935 | 21 | 0.0 | 0.0 | 0.00 | 0.00 | 0.00 | 87 | 1016.1 | |
| 20260906103009 | 21 | 0.0 | 0.0 | 0.00 | 0.00 | 0.00 | 86 | 1016.4 | |
| 20260906101929 | 21 | 0.0 | 0.0 | 0.00 | 0.00 | 0.00 | 86 | 1016.5 | |
| 20260906100930 | 21 | 0.0 | 0.0 | 0.00 | 0.00 | 0.00 | 86 | 1016.3 | |
| 20260906095930 | 21 | 0.0 | 0.0 | 0.00 | 0.00 | 0.00 | 86 | 1016.3 | |
| 20260906094934 | 21 | 0.0 | 0.0 | 0.00 | 0.00 | 0.00 | 86 | 1016.4 | |
| 20260906093934 | 21 | 0.0 | 0.0 | 0.00 | 0.00 | 0.00 | 85 | 1016.2 | |
| 20260906092934 | 21 | 0.0 | 0.0 | 0.00 | 0.00 | 0.00 | 85 | 1016.2 | |
| 20260906091934 | 21 | 0.0 | 0.0 | 0.00 | 0.00 | 0.00 | 85 | 1015.9 | |
| 20260906090934 | 21 | 0.0 | 0.0 | 0.00 | 0.00 | 0.00 | 84 | 1015.8 | |
| 20260906085955 | 21 | 0.0 | 0.0 | 0.00 | 0.00 | 0.00 | 85 | 1015.9 | |
| 20260906084935 | 21 | 0.0 | 0.0 | 0.00 | 0.00 | 0.00 | 84 | 1016.0 | |
| 20260906083955 | 22 | 0.0 | 0.0 | 0.00 | 0.00 | 0.00 | 84 | 1016.0 | |
| 20260906082936 | 22 | 0.0 | 0.0 | 0.00 | 0.00 | 0.00 | 84 | 1016.1 | |
| 20260906081936 | 22 | 0.0 | 0.0 | 0.00 | 0.00 | 0.00 | 83 | 1016.1 | |
| 20260906080956 | 22 | 0.0 | 0.0 | 0.00 | 0.00 | 0.00 | 82 | 1016.1 | |
| 20260906075956 | 22 | 0.0 | 0.0 | 0.00 | 0.00 | 0.00 | 82 | 1016.0 | |
| 20260906074940 | 22 | 0.0 | 0.0 | 0.00 | 0.00 | 0.00 | 82 | 1015.8 | |
| 20260906073940 | 22 | 0.0 | 0.0 | 0.00 | 0.00 | 0.00 | 82 | 1015.9 | |
| 20260906072940 | 22 | 0.0 | 0.0 | 0.00 | 0.00 | 0.00 | 81 | 1015.8 | |
| 20260906071940 | 22 | 0.0 | 0.0 | 0.00 | 0.00 | 0.00 | 81 | 1015.4 | |
| 20260906070940 | 22 | 0.0 | 0.0 | 0.00 | 0.00 | 0.00 | 81 | 1015.7 | |
| 20260906070000 | 22 | 0.0 | 0.0 | 0.00 | 0.00 | 0.00 | 81 | 1015.9 | |
| 20260906064940 | 22 | 0.0 | 0.0 | 0.00 | 0.00 | 0.00 | 80 | 1015.6 | |
| 20260906063940 | 23 | 0.0 | 0.0 | 0.00 | 0.00 | 0.00 | 80 | 1015.9 | |
| 20260906062941 | 23 | 0.0 | 0.0 | 0.00 | 0.00 | 0.00 | 78 | 1015.6 | |
| 20260906061941 | 23 | 0.0 | 0.0 | 0.00 | 0.00 | 0.00 | 78 | 1015.7 | |
| 20260906061002 | 23 | 0.0 | 0.0 | 0.00 | 0.00 | 0.00 | 78 | 1015.9 | |
| 20260906055941 | 23 | 0.0 | 0.0 | 0.00 | 0.00 | 0.00 | 78 | 1016.0 | |
| 20260906055001 | 23 | 0.0 | 0.0 | 0.00 | 0.00 | 0.00 | 78 | 1015.9 | |
| 20260906053941 | 23 | 0.0 | 0.0 | 0.00 | 0.00 | 0.00 | 78 | 1015.8 | |
| 20260906052942 | 23 | 0.0 | 0.0 | 0.00 | 0.00 | 0.00 | 77 | 1015.7 | |
| 20260906051946 | 23 | 0.0 | 0.0 | 0.00 | 0.00 | 0.00 | 77 | 1015.8 | |
| 20260906050942 | 24 | 0.0 | 0.0 | 0.00 | 0.00 | 0.00 | 77 | 1015.9 | |
| 20260906050002 | 24 | 0.0 | 0.0 | 0.00 | 0.00 | 0.00 | 76 | 1015.8 | |
| 20260906044942 | 24 | 0.0 | 0.0 | 0.00 | 0.00 | 0.00 | 75 | 1015.9 | |
| 20260906043942 | 25 | 0.0 | 0.0 | 0.00 | 0.00 | 0.00 | 74 | 1015.8 | |
| 20260906043005 | 25 | 0.0 | 0.0 | 0.00 | 0.00 | 0.00 | 74 | 1015.8 | |
| 20260906041946 | 25 | 0.0 | 0.0 | 0.00 | 0.00 | 0.00 | 74 | 1016.0 | |
| 20260906040946 | 25 | 0.0 | 0.0 | 0.00 | 0.00 | 0.00 | 73 | 1015.8 | |
| 20260906035946 | 26 | 0.0 | 0.0 | 0.00 | 0.00 | 0.00 | 72 | 1015.6 | |
| 20260906035006 | 26 | 0.0 | 0.0 | 0.00 | 0.00 | 0.00 | 70 | 1015.9 | |
| 20260906033946 | 26 | 0.0 | 0.0 | 0.00 | 0.00 | 0.00 | 69 | 1015.4 | |
| 20260906033007 | 26 | 0.0 | 0.0 | 0.00 | 0.00 | 0.00 | 68 | 1015.2 | |
| 20260906031950 | 27 | 0.0 | 0.0 | 0.00 | 0.00 | 0.00 | 68 | 1015.3 | |
| 20260906030957 | 27 | 0.0 | 0.0 | 0.00 | 0.00 | 0.00 | 67 | 1015.1 | |
| 20260906025953 | 27 | 0.0 | 0.0 | 0.00 | 0.00 | 0.00 | 66 | 1015.0 | |
| 20260906025034 | 27 | 0.0 | 0.0 | 0.00 | 0.00 | 0.00 | 66 | 1014.8 | |
| 20260906023954 | 27 | 0.0 | 0.0 | 0.00 | 0.00 | 0.00 | 66 | 1014.8 | |
| 20260906022954 | 27 | 0.0 | 0.0 | 0.00 | 0.00 | 0.00 | 66 | 1014.8 | |
| 20260906022014 | 28 | 0.0 | 0.0 | 0.00 | 0.00 | 0.00 | 65 | 1014.6 | |
| 20260906020954 | 28 | 0.0 | 0.0 | 0.00 | 0.00 | 0.00 | 63 | 1014.3 | |
| 20260906020015 | 28 | 0.0 | 0.0 | 0.00 | 0.00 | 0.00 | 62 | 1014.0 | |
| 20260906014958 | 28 | 0.0 | 0.0 | 0.00 | 0.00 | 0.00 | 61 | 1014.1 | |
| 20260906013959 | 29 | 0.0 | 0.0 | 0.00 | 0.00 | 0.00 | 60 | 1013.9 | |
| 20260906012958 | 29 | 0.0 | 0.0 | 0.00 | 0.00 | 0.00 | 58 | 1013.8 | |
| 20260906011959 | 30 | 0.0 | 0.0 | 0.00 | 0.00 | 0.00 | 57 | 1014.0 | |
| 20260906010958 | 30 | 0.0 | 0.0 | 0.00 | 0.00 | 0.00 | 57 | 1013.9 | |
| 20260906010019 | 30 | 0.0 | 0.0 | 0.00 | 0.00 | 0.00 | 56 | 1013.7 | |
| 20260906004959 | 31 | 0.0 | 0.0 | 0.00 | 0.00 | 0.00 | 53 | 1013.6 | |
| 20260906004000 | 32 | 0.0 | 0.0 | 0.00 | 0.00 | 0.00 | 52 | 1013.9 | |
| 20260906003000 | 32 | 0.0 | 0.0 | 0.00 | 0.00 | 0.00 | 50 | 1013.6 | |
| 20260906002110 | 33 | 0.0 | 0.0 | 0.00 | 0.00 | 0.00 | 47 | 1013.7 | |
| 20260906001027 | 34 | 0.0 | 0.0 | 0.00 | 0.00 | 0.00 | 46 | 1013.6 | |
| 20260906000011 | 34 | 0.0 | 0.0 | 0.00 | 0.00 | 0.00 | 44 | 1013.5 | |
| 20260905235011 | 35 | 0.0 | 0.0 | 0.00 | 0.00 | 0.00 | 44 | 1013.7 | |
| 20260905234011 | 35 | 179 | 0.0 | 1.6 | 0.00 | 0.00 | 0.00 | 42 | 1013.6 |
| 20260905233015 | 36 | 0.0 | 0.0 | 0.00 | 0.00 | 0.00 | 41 | 1013.8 | |
| 20260905232018 | 36 | 0.0 | 0.0 | 0.00 | 0.00 | 0.00 | 39 | 1013.7 | |
| 20260905231022 | 37 | 138 | 1.6 | 1.6 | 0.00 | 0.00 | 0.00 | 39 | 1013.6 |
| 20260905230018 | 37 | 0.0 | 0.0 | 0.00 | 0.00 | 0.00 | 38 | 1013.9 | |
| 20260905225019 | 37 | 0.0 | 0.0 | 0.00 | 0.00 | 0.00 | 38 | 1013.7 | |
| 20260905224022 | 38 | 157 | 1.6 | 3.2 | 0.00 | 0.00 | 0.00 | 38 | 1013.5 |
| 20260905222923 | 38 | 76 | 3.2 | 4.8 | 0.00 | 0.00 | 0.00 | 38 | 1013.6 |
| 20260905221943 | 38 | 159 | 3.2 | 3.2 | 0.00 | 0.00 | 0.00 | 38 | 1013.7 |
| 20260905220923 | 38 | 39 | 3.2 | 4.8 | 0.00 | 0.00 | 0.00 | 38 | 1013.5 |
| 20260905215923 | 38 | 161 | 4.8 | 4.8 | 0.00 | 0.00 | 0.00 | 38 | 1013.8 |
| 20260905214924 | 38 | 117 | 3.2 | 4.8 | 0.00 | 0.00 | 0.00 | 37 | 1013.8 |
| 20260905213927 | 38 | 148 | 4.8 | 8.0 | 0.00 | 0.00 | 0.00 | 37 | 1013.5 |
| 20260905212927 | 38 | 164 | 4.8 | 4.8 | 0.00 | 0.00 | 0.00 | 37 | 1013.8 |
| 20260905211927 | 38 | 175 | 4.8 | 8.0 | 0.00 | 0.00 | 0.00 | 38 | 1013.6 |
| 20260905210948 | 38 | 101 | 3.2 | 3.2 | 0.00 | 0.00 | 0.00 | 38 | 1013.7 |
| 20260905205928 | 38 | 165 | 3.2 | 3.2 | 0.00 | 0.00 | 0.00 | 37 | 1014.2 |
| 20260905204928 | 37 | 194 | 1.6 | 3.2 | 0.00 | 0.00 | 0.00 | 41 | 1014.1 |
| 20260905203928 | 38 | 142 | 8.0 | 9.7 | 0.00 | 0.00 | 0.00 | 39 | 1014.1 |
| 20260905202928 | 38 | 68 | 1.6 | 1.6 | 0.00 | 0.00 | 0.00 | 40 | 1014.4 |
| 20260905201928 | 37 | 164 | 3.2 | 4.8 | 0.00 | 0.00 | 0.00 | 41 | 1015.0 |
| 20260905200928 | 37 | 184 | 3.2 | 3.2 | 0.00 | 0.00 | 0.00 | 42 | 1014.6 |
| 20260905195929 | 38 | 137 | 4.8 | 4.8 | 0.00 | 0.00 | 0.00 | 40 | 1015.1 |
| 20260905194929 | 38 | 238 | 4.8 | 4.8 | 0.00 | 0.00 | 0.00 | 41 | 1015.0 |
| 20260905193950 | 37 | 157 | 8.0 | 11.3 | 0.00 | 0.00 | 0.00 | 42 | 1015.1 |